Flag for Germany Weather past 2 weeks in Hof (Saale), Bavaria, Germany

Now
31 °F

Snow flurries. Low clouds.


Feels Like: 31 °F
Forecast: 32 / 37 °F
Wind: 2 mph from Northwest

Location: Hof

Current Time: Mar 4, 2015 at 3:56:41 AM

Latest Report: Mar 4, 2015 at 3:00 AM


Visibility: 17 mi

Pressure: 30.11 "Hg

Humidity: 93%

Dew point: 30 °F

Location of Hof (Saale)Location

Historic Weather in Hof (Saale) — Graph

°F

Hof (Saale) temperature yesterday

Maximum temperature yesterday: 41 °F (at 5:00 PM)
Minimum temperature yesterday: 29 °F (at 4:00 AM)
Average temperature yesterday: 34 °F

Past Weeks' High & Low Weather Summary

 TemperatureHumidityPressure
High44 °F (Feb 27, 3:00 PM)100% (Feb 17, 8:00 PM)30.78 "Hg (Feb 17, 8:00 PM)
Low22 °F (Feb 26, 5:00 AM)48% (Feb 27, 3:00 PM)29.47 "Hg (Feb 21, 1:00 PM)
Average33 °F84%30.02 "Hg
* Reported Feb 17 3:00 AM — Mar 4 3:00 AM, Hof (Saale), Weather by CustomWeather, © 2015

Note: Actual official high and low records may vary slightly from our data, if they occured in-between our weather recording intervals... More about our weather records

Advertising

Hof (Saale) weather history for previous 24 hours

 ConditionsComfort  
Time TempWeatherWind HumidityBarometerVisibility
3:00 AM
Wed, Mar 4
31 °FSnow flurries. Low clouds.2 mph93%30.11 "Hg17 mi
2:00 AM34 °FLight snow. Low clouds.6 mph95%30.09 "Hg10 mi
1:00 AM33 °FLight snow. Low clouds.6 mph96%30.08 "Hg6 mi
12:00 AM35 °FFreezing rain. Low clouds.7 mph91%30.07 "Hg6 mi
11:00 PM
Tue, Mar 3
39 °FLight rain. Low clouds.7 mph73%30.03 "Hg19 mi
9:00 PM40 °FOvercast.7 mph63%30.04 "Hg34 mi
8:00 PM39 °FOvercast.7 mph65%30.05 "Hg34 mi
7:00 PM39 °FOvercast.7 mph64%30.05 "Hg34 mi
6:00 PM39 °FPassing clouds.3 mph62%30.06 "Hg31 mi
5:00 PM41 °FPartly sunny.3 mph55%30.08 "Hg34 mi
3:00 PM41 °FSunny.6 mph57%30.11 "Hg19 mi
2:00 PM38 °FSunny.6 mph62%30.13 "Hg13 mi
1:00 PM36 °FPassing clouds.6 mph73%30.16 "Hg15 mi
12:00 PM34 °FOvercast.8 mph78%30.18 "Hg14 mi
11:00 AM33 °FOvercast.7 mph80%30.17 "Hg14 mi
10:00 AM32 °FOvercast.7 mph82%30.16 "Hg22 mi
9:00 AM31 °FOvercast.7 mph87%30.15 "Hg19 mi
8:00 AM30 °FOvercast.6 mph88%30.15 "Hg16 mi
7:00 AM30 °FOvercast.5 mph88%30.14 "Hg17 mi
6:00 AM30 °FOvercast.7 mph88%30.14 "Hg19 mi
5:00 AM30 °FPassing clouds.7 mph88%30.12 "Hg22 mi
4:00 AM29 °FPassing clouds.6 mph89%30.09 "Hg25 mi
3:00 AM31 °FSnow flurries. Passing clouds.8 mph92%30.07 "Hg16 mi
Weather by CustomWeather, © 2015

See weather overviewHow to use our weather pages